Flag for India Weather past 2 weeks in Chennai, Tamil Nadu, India

Now
95 °F

Drizzle. Broken clouds.


Feels Like: 101 °F
Forecast: 82 / 94 °F
Wind: 10 mph from West

Location: Madras / Minambakkam

Current Time: Jul 25, 2014 at 5:21:16 PM

Latest Report: Jul 25, 2014 at 4:40 PM


Visibility: 4 mi

Pressure: 29.62 "Hg

Humidity: 44%

Dew point: 70 °F

Location of ChennaiLocation

Historic Weather in Chennai — Graph

°F

Chennai temperature yesterday

Maximum temperature yesterday: 97 °F (at 1:40 PM)
Minimum temperature yesterday: 84 °F (at 2:40 AM)
Average temperature yesterday: 89 °F

Past Weeks' High & Low Weather Summary

 TemperatureHumidityPressure
High99 °F (Jul 17, 3:40 PM)94% (Jul 10, 8:40 PM)29.77 "Hg (Jul 10, 8:40 PM)
Low73 °F (Jul 10, 8:40 PM)39% (Jul 17, 3:40 PM)29.53 "Hg (Jul 12, 4:40 PM)
Average88 °F61%29.64 "Hg
* Reported Jul 10 3:40 PM — Jul 25 3:40 PM, Chennai, Weather by CustomWeather, © 2014

Note: Actual official high and low records may vary slightly from our data, if they occured in-between our weather recording intervals... More about our weather records

Advertising

Chennai weather history for previous 24 hours

 ConditionsComfort  
Time TempWeatherWind HumidityBarometerVisibility
3:40 PM
Jul 25
91 °FBroken clouds.9 mph49%29.62 "Hg4 mi
2:40 PM99 °FBroken clouds.9 mph39%29.65 "Hg4 mi
1:40 PM95 °FScattered clouds.9 mph44%29.68 "Hg5 mi
12:40 PM97 °FScattered clouds.10 mph42%29.71 "Hg5 mi
11:40 AM95 °FScattered clouds.10 mph44%29.71 "Hg5 mi
10:40 AM91 °FScattered clouds.10 mph52%29.74 "Hg5 mi
9:40 AM90 °FScattered clouds.12 mph55%29.74 "Hg5 mi
8:40 AM88 °FScattered clouds.10 mph59%29.74 "Hg4 mi
7:40 AM86 °FScattered clouds.13 mph62%29.74 "Hg4 mi
6:40 AM84 °FScattered clouds.12 mph70%29.71 "Hg4 mi
5:40 AM84 °FPassing clouds.7 mph79%29.71 "Hg4 mi
4:40 AM84 °FPassing clouds.8 mph79%29.71 "Hg4 mi
3:40 AM82 °FPartly cloudy.7 mph84%29.68 "Hg4 mi
2:40 AM82 °FPassing clouds.2 mph84%29.71 "Hg4 mi
1:40 AM82 °FPassing clouds.5 mph84%29.71 "Hg4 mi
12:40 AM82 °FPassing clouds.7 mph84%29.74 "Hg4 mi
11:40 PM
Jul 24
84 °FPassing clouds.2 mph79%29.74 "Hg4 mi
10:40 PM86 °FPartly cloudy.No wind75%29.74 "Hg4 mi
9:40 PM86 °FPassing clouds.6 mph75%29.71 "Hg4 mi
8:40 PM86 °FPassing clouds.9 mph75%29.71 "Hg4 mi
7:40 PM86 °FPassing clouds.8 mph70%29.68 "Hg4 mi
6:40 PM88 °FBroken clouds.6 mph62%29.65 "Hg4 mi
5:40 PM95 °FBroken clouds.6 mph44%29.56 "Hg4 mi
Weather by CustomWeather, © 2014

See weather overviewHow to use our weather pages